Weather in Kastornoe

Russia / Kursk Oblast     51°49′43″N   38°07′49″E
temp.,
°C
wind,
m/s
gust,
m/s
humid.,
%
clouds,
%
prec.,
mm/h
press.,
hPa
HPBL,
m
25 february, thu
thu2500:00−12ssw51094100 0.1 1034292
03:00−10ssw5995100 0.4 1032319
06:00−8sw51094100 0.2 1029293
09:00−5sw61094100 0.3 1027327
12:000wsw61295100 0.1 1024472
15:00+1wsw713100100 0.1 1021393
18:00+2w61299100 0.2 1020346
21:00+2wnw51199100 0.3 1020292
26 february, fri
fri2600:00+1wnw51299100 0.2 1020291
03:00+1wnw61299100 0.3 1020314
06:00+1w51099100 0.0 1019269
09:00+2w61199100 0.0 1019292
12:00+2w613100100 0.0 1017347
15:00+2w815100100 0.0 1015491
18:00+2w71598100 0.3 1013423
21:00+2w71599100 0.4 1013372
27 february, sat
sat2700:00+1wnw61297100 0.0 1012454
03:00+1w61195100 0.0 1011388
06:00+1w61297100 0.1 1009514
09:00+1wnw61196100 0.1 1009635
12:00+1w611100100 0.1 1008611
15:00+1w612100100 0.2 1009586
18:00+1wnw51197100 0.2 1008479
21:000wnw5997100 0.3 1010393
28 february, sun
sun2800:00−1nw499798 0.1 1010381
03:00−1nnw489699 0.3 1012405
06:00−2nnw599399 0.1 1013598
09:00−4n599091 0.1 1015445
12:00−4n589050 0.0 1017502
15:00−3n588974 0.0 1018626
18:00−3n5890100 0.1 1019664
21:00−3nw369795 0.1 1022189
1 march, mon
mon100:00−3n489696 0.2 1024316
03:00−5nnw489689 0.3 1025309
06:00−6n379426 0.0 1027189
09:00−6nnw359215 0.0 1028214
12:00−4nnw358945 0.0 1030524
15:00−3nnw358667 0.1 1030697
18:00−5nw349233 0.0 103097
21:00−6wnw359427 0.0 1031125